Regional Weather Roundup
Issued by NWS Grand Forks, ND

Home | Current Version | Previous Version | Graphics & Text | Print | Product List | Glossary On
Versions: 1 2 3 4 5 6 7 8 9 10 11 12 13 14 15 16 17 18 19 20 21 22 23 24 25 26 27 28 29 30 31 32 33 34 35 36 37 38 39 40 41 42 43 44 45 46 47 48 49 50
000
ASUS43 KFGF 261910
RWRFGF
PRAIRIE TO PINES  WEATHER ROUNDUP
NATIONAL WEATHER SERVICE EASTERN NORTH DAKOTA/GRAND FORKS ND
200 PM CDT SUN MAR 26 2017

 **SATELLITE DATA USED TO AUGMENT SKY COVER AT AUTOMATED STATIONS**
 *****  WEATHER ACROSS EASTERN NORTH DAKOTA  *****

CITY           SKY/WX    TMP DP  RH WIND       PRES   REMARKS
GRAND FORKS    PTSUNNY   44  39  82 S6        29.94F
GRAND FRKS AFB FAIR      47  40  75 CALM      29.95F
DEVILS LAKE    FAIR      50  39  66 SW5       29.93F
FARGO          CLOUDY    43  37  79 CALM      29.96R
WAHPETON ARPT  CLOUDY    43  34  70 CALM      29.95S
$$

 ***** WEATHER ACROSS CENTRAL AND WESTERN NORTH DAKOTA  *****

CITY           SKY/WX    TMP DP  RH WIND       PRES   REMARKS
BISMARCK       FAIR      60  36  40 CALM      29.93S
MINOT          FAIR      58  42  55 NE8       29.89F
JAMESTOWN      CLOUDY    48  40  73 N3        29.92S
MINOT AFB      FAIR      51  40  65 VRB6      29.89S
GARRISON         N/A     58  37  45 SW7       29.89F
WILLISTON      FAIR      62  32  32 SW8       29.87F
DICKINSON      FAIR      58  31  35 VRB7      29.89F
HETTINGER      CLOUDY    57  34  41 MISG      29.92F
$$

 *****  OTHER AIRPORT OBSERVATIONS IN OUR AREA  *****

CITY           SKY/WX    TMP DP  RH WIND       PRES   REMARKS
WALHALLA       NOT AVBL
GRAFTON AIRPOR FAIR      43  37  81 CALM      29.97S
VALLEY CITY AR CLOUDY    45  45 100 SW5       29.96R
CANDO          NOT AVBL
CAVALIER APRT  FAIR      43  37  81 N8        29.95S
GWINNER        PTCLDY    46  37  71 MISG      29.94S
SHEYENNE NWR     N/A     45  37  73 S2        29.95S
ROLLA          FAIR      41  41 100 NE5       29.94R
 ***** THE ABOVE OBSERVATIONS ARE NON NWS ARE NOT QUALITY
       CONTROLLED AND MAY MIS-REPORT RAIN FOR SNOW...
$$

  *****  WEATHER ACROSS NORTHERN MINNESOTA  *****

CITY           SKY/WX    TMP DP  RH WIND       PRES   REMARKS
FLAG ISLAND    FAIR      34  30  86 S7        29.95S
WARROAD        CLOUDY    41  36  81 W7        29.96R
ROSEAU         FAIR      41  36  81 W5        29.96S
HALLOCK        CLOUDY    37  36  93 S3        29.96S
THF RVR FALLS  CLOUDY   N/A N/A N/A SW9       29.97R
BAUDETTE       CLOUDY    45  34  65 VRB5      29.94F
WASKISH        PTSUNNY   43  36  75 NW7       29.96S
CROOKSTON      CLOUDY    41  37  87 SW5       29.97S
GREENBUSH NDAW   N/A     41  36  81 S3          N/A
$$
  *****  WEATHER ACROSS CENTRAL AND WEST MINNESOTA  *****

CITY           SKY/WX    TMP DP  RH WIND       PRES   REMARKS
FOSSTON        PTSUNNY   48  36  61 W6        29.95S
BEMIDJI        FAIR      42  32  68 NE3       29.93F
PARK RAPIDS    FAIR      43  31  62 CALM      29.92F
ELBOW LAKE     CLOUDY    44  35  72 CALM      29.94F
WADENA         CLOUDY    45  34  65 CALM      29.93S
DETROIT LAKES  FAIR      43  32  65 CALM      29.95R
MOORHEAD       CLOUDY    43  36  75 CALM      29.97R
FERGUS FALLS   CLOUDY    45  36  70 CALM      29.97S
MORRIS MN      PTSUNNY   45  36  70 N5        29.93S
STAPLES        CLOUDY    43  32  65 NE3       29.93F
$$
  *****  WEATHER ELSEWHERE ACROSS MINNESOTA  *****

CITY           SKY/WX    TMP DP  RH WIND       PRES   REMARKS
DULUTH         CLOUDY    36  34  92 N5        29.92F
INTRNTL FALLS  FAIR      42  32  67 W7        29.95S
ELY            CLOUDY    36  30  80 CALM      29.94F
CLOQUET        CLOUDY    36  34  93 N3        29.93S
WHEATON        PTSUNNY   45  36  70 CALM      29.96F
BRAINERD       CLOUDY    39  34  82 N7        29.94S
HIBBING        CLOUDY    37  32  82 N6        29.93F
ALEXANDRIA     CLOUDY    44  34  67 N8        29.93S
SAINT CLOUD    CLOUDY    40  36  86 N7        29.92S
MINNEAPOLIS    CLOUDY    42  35  76 NE6       29.91S
$$

  *****  WEATHER ACROSS SOUTH DAKOTA  *****

CITY           SKY/WX    TMP DP  RH WIND       PRES   REMARKS
SIOUX FALLS    CLOUDY    45  38  76 VRB5      29.94R
BROOKINGS      CLOUDY    39  36  89 NE3       29.93S
WATERTOWN      CLOUDY    41  36  82 NE3       29.93S
HURON          CLOUDY    44  37  76 CALM      29.95S
SISSETON         N/A     41  39  93 S8        29.93F
ABERDEEN       CLOUDY    43  35  73 W7        29.95F
MITCHELL       CLOUDY    45  39  79 VRB5      29.95F
PIERRE         LGT RAIN  43  38  82 CALM      29.94S
MOBRIDGE       CLOUDY    47  36  65 CALM      29.92S
RAPID CITY     CLOUDY    42  39  89 N17       29.93S
$$

  *****  SOME WEATHER IN NEARBY STATES *****

CITY           SKY/WX    TMP DP  RH WIND       PRES   REMARKS
GLASGOW MT     FAIR      54  22  28 NW7       29.91F
GREAT FALLS MT FAIR      51  17  26 SW17G24   29.88F
CHEYENNE WY    CLOUDY    39  34  82 N14G23    29.93R
SCOTTSBLUFF NE PTSUNNY   55  34  45 N12G17    29.90F
OMAHA NE       CLOUDY    47  40  76 NW7       29.92F
DES MOINES IA  CLOUDY    47  43  86 W12       29.89R
DAVENPORT IA     N/A     54  52  93 SW8       29.82S FOG
CHICAGO IL     PTSUNNY   61  52  72 SW9       29.80F
EAU CLAIRE WI  CLOUDY    40  37  89 NE7       29.87F
LA CROSSE WI   CLOUDY    42  39  89 N7        29.87F FOG
$$

  *****  SOME NATIONAL WEATHER *****

CITY           SKY/WX    TMP DP  RH WIND       PRES   REMARKS
LA GUARDIA NY  CLOUDY    42  33  70 NE14      30.43F
RALEIGH NC     PTSUNNY   75  50  41 S9G20     30.17F
ATLANTA GA     PTSUNNY   77  56  48 SW14G21   30.08F
NEW ORLEANS LA FAIR      81  67  62 S12       30.02F
OKLAHOMA CITY  PTSUNNY   68  51  54 S15G25    29.77S
ALBUQUERQUE NM FAIR      60  27  28 NW14G22   29.96F
SALT LAKE CITY PTSUNNY   51  29  42 S3        30.03F
LOS ANGELES CA FAIR      65  54  67 W6        30.07F
BOISE ID       FAIR      58  29  33 S21G31    29.90F
SEATTLE WA     LGT RAIN  47  41  80 E7        29.79F
$$

*** WEATHER ACROSS MANITOBA...SASKATCHEWAN AND ONTARIO ***
                ***ONTARIO***

CITY           SKY/WX    TMP DP  RH WIND       PRES   REMARKS
GERALDTON      CLOUDY    36  25  64 SE6       29.96F
THUNDER BAY    LGT RAIN  36  34  93 NE7       29.98F
SIOUX LOOKOUT  PTSUNNY   41  28  60 VRB3      29.92F
TORONTO        CLOUDY    37  34  87 E15G23    30.08F
BIG TROUT LK   CLOUDY    39  27  60 SW9       29.85F
PICKLE LAKE    PTSUNNY   41  27  56 SW9       29.89F
DRYDEN         CLOUDY    39  32  75 W7        29.93F
KENORA         CLOUDY    36  32  87 SW7       29.94S
$$
                *** MANITOBA***

CITY           SKY/WX    TMP DP  RH WIND       PRES   REMARKS
BRANDON        MOSUNNY   41  36  81 E10       29.94S
DAUPHIN        CLOUDY    39  34  81 NE9       29.95F
ISLAND LAKE    PTSUNNY   32  23  69 NW9       29.91R WCI  24
PILOT MOUND      N/A     41  34  75 E5          N/A
THE PAS        MOSUNNY   27  19  74 NW6       29.98S WCI  20
THOMPSON       CLOUDY    23  19  86 NW10      29.93R WCI  12
WINNIPEG       MOSUNNY   43  37  81 N9        29.96F
LYNN LAKE      MOSUNNY   27  19  74 N7        29.96R WCI  19
CHURCHILL      LGT SNOW  14  10  85 NE17      29.97R DRFTSNOWWCI  -3
GILLAM         FLURRIES  27  21  80 NW14      29.86R WCI  15
$$
                ***SASKATCHEWAN***

CITY           SKY/WX    TMP DP  RH WIND       PRES   REMARKS
ESTEVAN        MOSUNNY   57  37  47 S5        29.86F
KINDERSLEY     PTSUNNY   34  34 100 E8        29.86R
LLOYDMINSTER   MOSUNNY   37  34  87 S7        29.88R
PRINCE ALBERT  CLOUDY    32  27  80 E6        29.93F
REGINA         PTSUNNY   50  32  50 S6        29.86F
YORKTON        CLOUDY    37  36  93 SE9       29.90F
N. BATTLEFORD  PTSUNNY   36  34  93 SE8       29.92S
LA RONGE       PTSUNNY   28  19  69 N6        29.98S WCI  22
SASKATOON      CLOUDY    34  30  86 E6        29.91S
SWIFT CURRENT  MOSUNNY   50  21  32 W16G24    29.83R
$$
NOTE: THESE ARE AUTOMATED STATIONS WITH LIMITED QUALITY CONTROL
      "FAIR" INDICATES FEW OR NO CLOUDS BELOW 12,000 FEET WITH NO
      SIGNIFICANT WEATHER AND/OR OBSTRUCTIONS TO VISIBILITY.
      SKY/WX - SKY CONDITION AND SIGNIFICANT WEATHER.
      TMP - AIR TEMPERATURE.    DP   - DEWPOINT TEMPERATURE.
      RH  - RELATIVE HUMIDITY.  PRES - PRESSURE.
      HX  - HEAT INDEX.         WCI  - WIND CHILL INDEX.
$




USA.gov is the U.S. government's official web portal to all federal, state and local government web resources and services.